Location: Cantaing
(50.1487°N, 3.1675°E)
Time: 20:10:58
(UTC+00:00)

Sich 1 - Pass Details

Date: 14 January 2026
Orbit: 571 x 598 km, 82.5° (Epoch: 13 February)

Event Time Altitude Azimuth Distance (km) Brightness Sun altitude
Rises 06:03:05 0° 214° (SW) 2,805 6.2 -15.1°
Reaches altitude 10° 06:05:28 10° 224° (SW) 1,904 5.3 -14.8°
Maximum altitude 06:09:14 32° 288° (WNW) 1,019 3.6 -14.2°
Drops below altitude 10° 06:13:01 10° 352° (N) 1,904 5.3 -13.6°
Sets 06:15:25 0° 3° (N) 2,804 6.3 -13.2°
